Probability
45 39 32 35 32 35 35 32 29 29 23 16 16 16 13 13 13 13 3 6 6 6 6 6 3 3 0 0 0 0 0 0 0 0 0 0 3 3 3 3 3 3 3
45 45 35 39 35 26 26 32 29 32 23 23 23 16 13 13 10 6 6 3 6 6 3 3 3 6 6 6 3 0 3 0 0 3 3 0 3 3 3 3 3 0 3
39 29 32 35 35 35 29 26 26 26 23 19 19 16 10 10 6 6 6 6 6 3 3 6 6 6 6 6 6 3 3 0 6 3 3 3 0 0 3 3 3 3 0
35 26 42 42 39 39 29 26 16 19 19 19 19 13 10 10 6 6 6 10 10 6 6 6 6 6 6 6 6 6 6 6 3 0 0 0 0 0 3 3 3 0 0
35 32 39 42 39 35 29 16 16 16 10 16 16 16 10 10 3 6 10 6 10 10 6 6 6 3 3 6 3 6 6 10 0 0 0 0 0 3 3 0 0 0 0
45 45 42 39 29 35 26 13 16 16 13 19 23 19 13 0 0 0 3 10 10 10 10 6 6 3 0 0 0 0 0 0 3 6 6 6 13 0 3 0 0 0 0
45 42 42 42 26 29 19 16 19 16 19 19 19 19 16 13 0 0 0 10 10 10 10 6 3 0 0 0 0 0 0 0 0 3 6 3 10 10 6 3 3 3 0
52 48 48 42 35 29 29 19 23 19 23 23 19 19 16 13 0 0 0 0 10 10 6 6 13 6 0 0 0 0 6 6 0 0 0 6 6 6 6 3 3 0 3
48 52 48 48 42 35 32 42 39 29 32 32 26 19 26 10 0 0 0 3 6 10 3 3 6 6 0 0 0 6 10 10 0 0 0 0 0 0 0 0 0 0 0
55 58 55 55 58 52 45 45 42 32 32 29 19 23 19 26 0 0 0 3 6 10 10 10 0 0 0 0 0 0 6 6 3 0 0 0 0 0 0 0 0 0 0
58 65 68 58 65 61 61 58 52 39 35 32 23 23 23 13 3 0 0 3 6 10 13 10 3 0 0 0 0 0 0 0 0 0 3 3 3 3 0 0 0 0 0
61 71 77 74 58 55 65 68 58 52 42 42 32 26 19 13 3 0 0 0 0 3 10 10 0 0 0 0 0 0 0 0 0 0 0 0 0 0 3 0 0 0 0
68 77 74 74 74 55 61 58 48 45 26 6 16 16 16 13 6 0 0 0 0 0 6 0 0 0 0 0 0 0 0 0 0 0 0 0 3 0 0 0 0 0 0
81 77 77 71 61 55 55 55 39 23 19 19 16 13 6 6 13 10 3 0 0 0 0 0 0 0 0 0 0 0 0 0 0 0 0 0 0 0 0 0 0 3 0
74 74 71 58 52 48 48 39 29 23 13 13 16 6 13 13 3 3 6 3 0 0 0 0 0 0 0 0 0 0 0 0 0 0 0 0 0 0 0 3 3 0 0
65 68 61 55 55 45 35 26 3 0 0 0 0 0 3 0 0 0 0 0 0 0 0 0 0 0 0 3 3 3 3 0 0 0 0 0 0 0 0 0 0 0 0
55 58 48 42 39 32 35 26 13 0 0 0 0 0 0 0 0 0 0 0 0 0 0 0 0 0 0 0 0 0 0 0 0 0 0 0 0 0 0 0 0 0 0
39 29 29 45 29 26 19 19 13 10 3 0 0 0 0 0 0 0 0 0 0 0 0 0 0 0 0 0 0 0 0 0 0 0 0 0 0 0 0 0 0 0 0
29 23 19 19 13 16 10 13 10 10 6 0 0 0 0 0 0 0 0 0 0 0 0 0 0 0 0 0 0 0 0 0 0 0 0 0 0 0 0 0 0 0 0
19 3 3 16 10 10 6 3 3 0 0 0 3 3 0 0 0 0 0 0 0 0 0 0 0 0 0 0 0 0 0 0 0 0 0 0 0 0 0 0 0 0 0
16 3 0 0 13 13 0 0 0 6 6 3 6 6 0 0 0 0 0 0 0 0 0 0 0 0 0 0 0 0 0 0 0 0 0 0 0 0 0 0 0 0 0
13 10 0 3 10 6 6 6 3 3 6 3 0 0 0 0 0 0 0 0 0 0 0 0 0 0 0 0 0 0 0 0 0 0 0 0 0 0 0 0 0 0 0
6 6 6 6 3 0 0 3 3 0 0 3 0 0 0 0 0 0 0 0 0 0 0 0 0 0 0 0 0 0 0 0 0 0 0 0 0 0 0 0 0 0 0
6 3 0 0 0 0 0 0 0 0 0 0 0 0 0 0 0 0 0 0 0 0 0 0 0 0 0 0 0 0 0 0 0 0 0 0 0 0 0 0 0 0 0
0 0 0 0 0 0 0 0 0 0 0 0 0 0 0 0 0 0 0 0 0 0 0 0 0 0 0 0 0 0 0 0 0 0 0 0 0 0 0 0 0 0 0
0 0 0 0 0 0 0 0 0 0 0 0 0 0 0 0 0 0 0 0 0 0 0 0 0 0 0 0 0 0 0 0 0 0 0 0 0 0 0 0 0 0 0
Height
5826 5830 5834 5839 5843 5847 5851 5854 5857 5860 5862 5865 5867 5868 5870 5871 5871 5872 5872 5872 5872 5872 5872 5871 5871 5870 5869 5868 5866 5865 5864 5862 5861 5860 5858 5856 5855 5853 5852 5850 5848 5847 5845
5825 5829 5833 5837 5842 5845 5849 5852 5855 5858 5860 5862 5864 5866 5867 5868 5868 5869 5869 5869 5869 5869 5869 5868 5867 5866 5865 5864 5863 5862 5860 5858 5857 5855 5854 5852 5851 5849 5847 5845 5843 5841 5840
5825 5828 5832 5836 5840 5843 5847 5850 5852 5855 5858 5859 5861 5863 5864 5864 5865 5865 5866 5866 5866 5866 5865 5864 5863 5863 5861 5860 5859 5857 5856 5854 5853 5851 5849 5848 5846 5844 5842 5840 5838 5836 5833
5824 5827 5831 5834 5838 5841 5844 5847 5850 5852 5855 5856 5858 5859 5860 5861 5861 5862 5862 5862 5862 5862 5861 5860 5859 5858 5857 5856 5854 5853 5851 5850 5848 5846 5844 5842 5840 5838 5836 5834 5832 5830 5827
5823 5826 5829 5832 5836 5839 5842 5844 5847 5849 5851 5853 5854 5855 5856 5857 5857 5857 5857 5857 5857 5857 5856 5855 5854 5853 5852 5851 5850 5848 5846 5845 5843 5841 5839 5837 5835 5832 5830 5828 5825 5823 5820
5821 5824 5827 5830 5833 5836 5839 5841 5843 5845 5847 5849 5850 5851 5852 5852 5853 5852 5852 5852 5852 5851 5851 5850 5849 5848 5847 5845 5844 5842 5841 5839 5837 5835 5833 5831 5828 5826 5823 5820 5817 5815 5812
5819 5822 5825 5828 5830 5833 5835 5838 5840 5841 5843 5845 5846 5846 5847 5847 5847 5847 5847 5847 5846 5846 5845 5844 5843 5842 5841 5839 5837 5836 5834 5832 5830 5828 5825 5823 5820 5818 5815 5812 5809 5806 5803
5817 5820 5822 5825 5827 5830 5832 5834 5835 5837 5839 5840 5841 5841 5841 5842 5842 5842 5841 5841 5840 5840 5839 5838 5837 5835 5833 5832 5830 5829 5827 5824 5822 5819 5817 5815 5812 5809 5806 5803 5800 5797 5793
5816 5818 5820 5822 5824 5826 5828 5829 5831 5832 5834 5835 5835 5836 5836 5836 5836 5836 5835 5835 5834 5833 5832 5831 5829 5828 5826 5824 5822 5820 5818 5816 5813 5811 5808 5805 5802 5799 5796 5793 5789 5786 5783
5813 5815 5817 5819 5821 5822 5823 5825 5826 5828 5829 5830 5830 5830 5830 5830 5829 5829 5828 5828 5827 5826 5824 5823 5821 5820 5818 5815 5813 5811 5809 5807 5804 5801 5798 5795 5792 5788 5785 5781 5778 5774 5771
5809 5811 5813 5815 5817 5818 5819 5820 5821 5822 5823 5824 5824 5823 5823 5823 5823 5822 5821 5820 5819 5818 5816 5814 5813 5811 5809 5806 5804 5802 5799 5797 5794 5791 5788 5785 5781 5777 5774 5770 5766 5762 5758
5805 5807 5809 5811 5812 5813 5815 5816 5816 5816 5817 5817 5816 5816 5816 5815 5815 5815 5814 5813 5811 5810 5808 5806 5804 5802 5799 5797 5794 5792 5789 5786 5783 5780 5776 5773 5769 5765 5761 5757 5753 5749 5745
5800 5802 5804 5805 5806 5808 5808 5809 5809 5809 5809 5809 5809 5808 5808 5808 5807 5806 5805 5803 5802 5800 5799 5797 5794 5792 5789 5787 5784 5781 5778 5775 5772 5768 5764 5761 5757 5753 5749 5744 5740 5735 5731
5795 5797 5798 5800 5801 5801 5802 5802 5802 5802 5802 5801 5801 5800 5799 5799 5798 5797 5795 5794 5792 5791 5789 5787 5784 5781 5779 5776 5773 5769 5766 5763 5759 5755 5752 5748 5743 5739 5735 5730 5726 5721 5717
5790 5791 5792 5793 5794 5795 5795 5795 5795 5795 5795 5794 5793 5792 5791 5790 5789 5787 5786 5784 5783 5781 5778 5776 5774 5771 5767 5764 5760 5757 5754 5750 5746 5743 5738 5734 5730 5725 5721 5716 5711 5706 5701
5783 5785 5786 5787 5788 5788 5788 5788 5788 5787 5787 5786 5785 5784 5783 5781 5779 5778 5776 5774 5772 5770 5767 5765 5762 5759 5756 5752 5749 5745 5741 5737 5733 5729 5725 5720 5716 5711 5706 5701 5696 5691 5686
5777 5778 5779 5780 5781 5781 5781 5780 5780 5779 5779 5778 5777 5775 5774 5772 5770 5768 5766 5764 5762 5759 5757 5754 5750 5747 5744 5740 5736 5732 5728 5723 5719 5715 5710 5705 5701 5696 5691 5686 5681 5676 5671
5770 5771 5772 5772 5773 5773 5773 5772 5771 5770 5770 5768 5767 5766 5764 5762 5760 5758 5756 5754 5751 5748 5745 5742 5738 5735 5731 5727 5723 5718 5714 5709 5705 5700 5695 5691 5686 5682 5677 5672 5667 5662 5657
5763 5764 5764 5765 5765 5765 5764 5763 5762 5761 5760 5758 5757 5755 5753 5751 5749 5747 5744 5742 5739 5736 5733 5729 5725 5721 5718 5713 5709 5704 5700 5695 5691 5686 5681 5677 5672 5668 5663 5658 5653 5648 5643
5755 5756 5756 5756 5756 5756 5755 5754 5753 5752 5750 5748 5747 5745 5743 5740 5738 5735 5733 5730 5726 5723 5720 5716 5712 5708 5704 5699 5695 5690 5686 5681 5677 5672 5667 5663 5658 5654 5649 5644 5639 5634 5629
5747 5747 5748 5747 5747 5746 5746 5745 5744 5742 5740 5738 5736 5734 5732 5729 5726 5723 5720 5717 5714 5710 5706 5702 5698 5694 5689 5685 5680 5676 5672 5667 5662 5658 5653 5649 5644 5640 5635 5630 5625 5621 5616
5738 5739 5739 5738 5738 5737 5736 5735 5733 5732 5730 5727 5725 5722 5720 5717 5714 5711 5707 5704 5700 5696 5692 5688 5684 5680 5675 5671 5666 5662 5657 5652 5648 5643 5639 5635 5630 5625 5621 5616 5612 5607 5603
5730 5730 5729 5729 5728 5727 5725 5724 5722 5720 5718 5716 5713 5710 5708 5705 5701 5698 5694 5690 5686 5682 5678 5674 5670 5666 5661 5657 5652 5647 5643 5638 5634 5629 5625 5621 5616 5612 5607 5603 5599 5595 5591
5721 5721 5720 5719 5718 5717 5715 5713 5711 5709 5707 5704 5701 5698 5695 5692 5689 5685 5682 5678 5674 5669 5665 5661 5657 5652 5648 5643 5638 5633 5628 5624 5619 5615 5611 5607 5603 5599 5595 5591 5587 5583 5579
5712 5712 5711 5709 5708 5706 5704 5702 5700 5698 5695 5692 5689 5686 5683 5679 5676 5672 5668 5665 5661 5656 5652 5648 5643 5639 5634 5629 5625 5620 5615 5611 5606 5602 5598 5594 5591 5587 5583 5579 5575 5572 5568
5703 5702 5701 5700 5698 5696 5694 5691 5688 5686 5683 5680 5677 5673 5670 5666 5663 5659 5655 5651 5647 5643 5639 5635 5630 5626 5621 5616 5612 5607 5603 5599 5594 5590 5586 5583 5579 5576 5572 5569 5565 5562 5559
Wind_Speed
20 22 23 23 23 22 21 20 18 17 15 14 14 13 13 12 12 12 11 12 11 12 12 12 13 13 14 14 14 15 15 16 16 16 17 17 17 18 18 18 19 20 20
19 22 23 22 21 21 20 19 18 17 16 15 15 14 13 13 13 13 13 13 13 14 14 14 14 14 15 15 16 16 16 17 17 18 18 18 19 19 20 20 21 22 22
18 20 22 21 21 21 20 18 17 16 15 15 14 15 14 14 14 15 15 15 15 15 15 16 16 16 16 17 17 17 18 18 19 19 20 20 20 21 22 22 23 24 25
18 19 20 21 21 20 19 18 18 17 16 15 15 16 16 16 16 16 16 16 17 17 17 17 18 18 18 19 19 19 20 20 20 21 21 22 22 23 24 25 26 26 27
16 18 20 21 20 20 19 19 18 18 17 17 17 17 17 17 17 17 18 18 18 19 19 20 20 20 21 21 21 22 22 23 23 23 24 24 25 26 27 28 28 29 30
16 17 18 18 18 19 19 19 19 18 19 19 19 19 19 19 19 19 19 20 20 20 21 21 22 22 23 23 24 24 25 25 26 26 27 28 28 29 30 30 31 32 33
16 16 16 17 18 18 20 20 20 19 19 20 20 20 20 20 20 21 20 21 21 22 22 23 24 25 25 26 26 26 27 27 28 29 29 30 31 31 32 33 34 35 36
16 16 17 17 18 18 19 20 21 21 21 21 22 22 21 22 22 22 21 21 22 23 24 25 26 27 27 27 28 28 29 30 31 31 32 33 33 34 35 35 37 38 38
17 17 18 18 18 18 19 20 21 22 22 22 22 23 23 23 24 23 23 24 24 25 26 27 28 29 29 29 30 31 31 32 34 35 35 35 36 37 38 39 39 40 40
18 18 18 18 18 19 19 20 20 21 22 23 23 24 24 24 24 24 25 26 27 28 28 29 30 30 31 32 32 33 34 35 36 37 37 38 39 39 40 41 42 42 42
19 19 18 19 19 19 19 20 21 23 24 25 25 26 26 26 26 27 27 28 29 30 30 31 31 32 33 33 34 35 36 37 38 39 40 41 41 42 43 43 44 45 45
19 19 19 20 20 20 21 22 23 24 24 26 27 28 28 28 28 29 29 30 31 32 32 33 33 34 34 35 37 38 38 39 40 41 42 43 43 43 44 46 47 47 48
20 20 20 20 21 21 22 24 24 25 26 27 28 29 29 29 30 31 31 32 32 33 33 34 36 37 37 38 40 41 42 43 43 44 44 44 45 46 47 49 50 50 50
21 21 21 21 22 22 23 23 25 25 26 26 28 29 30 32 32 33 33 33 33 34 35 36 37 38 40 42 43 43 44 45 45 46 46 46 47 49 50 51 52 52 52
23 23 23 23 23 24 24 24 25 25 27 27 28 30 32 33 34 35 35 35 36 36 37 38 39 40 41 42 44 45 46 46 47 47 48 49 49 50 51 51 51 52 53
24 24 24 24 24 25 26 26 27 27 28 29 31 32 33 33 33 34 35 36 37 38 39 40 40 41 42 44 46 46 47 48 48 48 49 50 51 51 51 52 52 52 52
24 25 25 25 26 26 27 28 29 30 31 32 33 33 34 35 35 36 36 36 37 39 40 41 42 43 44 46 47 47 48 49 49 50 50 50 51 51 51 50 50 50 50
25 26 26 27 27 28 29 30 32 32 33 34 34 35 37 38 38 38 38 38 39 41 42 43 44 45 46 47 49 49 49 50 50 50 50 50 50 49 49 48 49 50 49
26 26 27 28 28 29 30 31 32 33 34 35 35 36 36 37 38 39 40 41 41 43 44 44 46 47 47 48 49 49 50 50 49 49 49 49 49 48 47 48 48 48 48
26 27 28 29 30 31 32 33 33 34 34 34 35 36 37 38 39 40 41 42 43 44 45 46 47 47 48 49 49 49 49 49 49 49 49 49 48 48 48 48 48 47 46
27 28 29 30 32 33 33 34 34 34 35 36 36 36 37 38 40 41 43 44 45 46 46 46 47 48 48 49 49 49 49 49 49 49 49 48 48 48 48 47 47 46 45
28 29 30 30 31 32 33 34 35 35 36 37 37 38 39 40 42 44 44 46 46 46 46 47 47 48 49 49 50 50 50 49 49 48 48 48 48 48 47 45 44 43 42
28 29 30 31 31 32 33 34 35 36 37 38 39 40 40 41 43 43 44 44 44 44 45 46 46 46 47 48 48 47 48 48 47 47 47 46 44 43 43 42 41 40 39
28 29 30 30 31 33 34 35 36 37 38 39 40 40 41 42 42 42 43 43 43 43 44 44 44 45 45 46 46 46 46 46 45 44 44 42 41 41 40 39 38 36 35
27 28 29 30 31 32 34 35 37 38 39 39 39 40 41 41 41 42 42 43 43 44 44 44 44 44 44 44 44 44 43 42 41 41 40 39 39 38 37 36 35 34 33
27 28 30 31 32 33 35 36 37 37 37 38 39 40 40 41 41 41 42 43 43 43 43 43 43 43 43 43 42 41 39 38 38 37 36 35 35 34 34 33 32 31 30
Wind_Direction
201 198 196 199 201 202 204 206 209 211 216 221 224 230 233 237 242 246 249 255 262 269 275 282 286 289 291 294 297 298 299 300 299 299 299 299 299 299 299 298 298 298 298
198 197 197 199 201 202 206 209 211 216 221 225 229 233 236 242 248 252 254 259 266 272 277 282 286 289 291 293 294 296 297 298 298 298 299 299 299 299 299 299 299 300 300
197 198 201 203 205 206 209 212 216 221 224 228 231 235 241 247 251 255 256 263 269 274 278 282 285 287 288 290 291 292 294 295 296 296 297 298 298 298 298 298 299 299 300
200 202 205 207 210 212 215 219 222 226 228 231 236 241 247 251 255 257 260 266 270 273 277 281 283 285 287 288 289 289 291 292 293 294 295 296 297 298 298 299 299 299 299
204 208 210 212 215 219 221 223 227 230 233 237 242 247 253 255 258 261 264 267 270 274 276 279 282 284 285 286 288 289 290 291 292 293 294 295 296 297 298 298 298 298 298
208 210 212 215 219 224 226 228 232 236 239 243 249 252 256 259 263 267 267 267 271 275 277 279 281 284 286 287 288 288 290 290 290 291 292 293 295 296 297 297 298 298 298
213 216 220 222 226 228 230 233 237 241 244 248 252 255 258 263 266 268 269 271 272 274 276 278 281 284 287 287 287 289 290 290 290 291 292 293 294 294 295 296 296 298 298
219 221 224 227 231 233 235 239 242 246 248 253 255 258 262 266 268 267 269 272 274 276 278 280 282 284 286 287 287 288 289 289 289 291 291 292 293 294 294 295 296 296 296
226 227 229 231 233 237 242 246 247 249 252 256 260 262 264 266 266 267 270 273 275 277 279 282 283 285 286 286 287 287 287 288 289 291 291 292 293 294 295 296 296 296 296
230 232 234 235 238 242 245 247 250 252 255 259 262 264 265 267 268 270 272 273 276 278 280 282 284 284 285 287 288 288 288 287 288 289 291 292 293 295 296 296 296 296 296
233 234 236 239 242 245 249 252 254 256 259 262 263 265 267 269 271 273 275 276 278 280 281 282 283 284 285 286 288 289 289 288 288 290 292 292 293 293 294 295 295 296 296
234 237 240 244 247 251 253 257 260 261 263 266 268 269 269 270 273 275 277 278 279 281 281 281 283 285 286 287 288 289 289 289 290 292 293 293 293 294 294 295 295 296 296
237 238 241 245 250 253 257 260 264 266 268 269 270 270 271 273 276 277 278 279 281 282 282 282 284 285 286 287 288 289 290 290 291 292 293 293 294 294 295 295 296 297 296
242 244 247 250 254 256 261 264 265 267 268 270 271 272 274 276 277 278 278 279 281 282 283 285 286 286 287 287 289 289 290 290 291 292 292 294 294 294 294 295 296 296 296
245 248 251 254 257 260 264 267 268 270 270 273 275 276 277 278 279 279 279 280 281 282 283 285 286 288 289 289 290 290 291 291 292 293 294 294 293 293 294 295 295 295 296
247 249 252 256 259 263 266 268 270 273 275 276 278 279 281 282 282 282 283 283 282 283 284 285 286 287 288 288 289 290 291 292 293 293 294 294 294 295 295 296 296 296 296
250 253 255 258 262 265 268 270 272 274 275 277 279 280 280 283 283 283 284 285 287 288 287 287 288 289 289 289 289 289 291 292 294 295 295 295 295 296 296 296 297 297 297
252 255 258 260 264 268 271 273 274 275 278 279 280 281 282 282 283 284 285 286 287 289 289 289 290 290 290 291 291 292 293 294 294 295 295 295 296 295 295 296 297 298 298
253 256 260 264 267 270 273 275 277 279 280 281 282 283 284 285 285 287 288 288 289 289 290 290 291 291 291 292 292 293 293 294 294 294 295 295 295 296 296 297 297 297 297
255 258 262 266 268 271 274 275 278 279 280 281 283 284 286 287 287 288 288 288 289 289 289 290 291 292 292 293 293 294 294 294 295 295 295 295 295 296 297 297 297 297 296
259 262 265 268 269 271 273 275 276 279 280 282 284 285 286 287 287 288 288 288 289 290 291 291 292 292 293 293 293 294 294 295 295 296 296 296 296 296 295 295 295 295 295
261 264 267 270 272 273 274 276 278 280 282 284 285 286 286 287 288 289 289 289 290 290 291 292 293 294 294 294 294 294 296 296 295 295 294 294 295 294 294 294 294 294 294
263 266 270 272 273 276 278 280 281 283 285 287 288 288 288 289 290 290 290 292 293 294 294 293 294 295 295 296 295 295 296 295 294 294 294 295 295 293 293 294 294 294 293
267 270 273 275 277 279 282 283 284 286 287 288 289 289 290 291 291 292 293 293 293 295 296 296 296 296 296 296 296 296 296 296 295 295 294 294 293 293 293 294 293 294 293
275 277 279 281 282 283 284 285 286 287 288 289 289 290 291 292 293 293 293 294 294 295 295 296 297 297 298 298 299 298 298 297 295 294 294 294 294 294 294 293 293 293 293
280 282 283 284 285 286 287 288 290 291 291 292 292 292 293 293 294 294 294 294 295 295 296 297 297 298 299 300 300 299 298 297 296 296 296 296 296 296 295 296 295 294 294